Вернуться в каталог

KUIPER-00176

АктивенСвязьLEO
NORAD 65788·PAYLOAD·🇺🇸 United States

Запущен Sep 25, 2025 с Cape Canaveral Space Force Station

Loading…

Ближайшие Пролёты (ближайшие 24 часа)

TLE

СвежийSource: CelesTrak SupGP

Эпоха: Sep 14, 2026, 15:02 UTC

1 65788C 25217AC  26257.62638889  .00004931  00000+0  64554-3 0  2573
2 65788  51.8989 287.6184 0000623  46.0759 285.3961 14.79922825    18

Отслеживайте KUIPER-00176 в реальном времени с AllMySat

Download on the App Store